EW1133 Weather Reports


time (UTC)temp
C
wind
direction
speed
KPH
gust
KPH
rain 1hr
cm
rain 24hr
cm
rain mn
cm
humidity
%
barometer
mb
20260503185318 28 51 0.0 1.6 0.00 0.00 0.00 36 1010.4
20260503184830 28 51 0.0 1.6 0.00 0.00 0.00 36 1010.5
20260503184321 27 51 0.0 1.6 0.00 0.00 0.00 40 1010.5
20260503183813 27 51 0.0 1.6 0.00 0.00 0.00 41 1010.5
20260503183328 26 51 0.0 1.6 0.00 0.00 0.00 39 1010.6
20260503182826 26 51 0.0 3.2 0.00 0.00 0.00 41 1010.7
20260503182319 26 51 0.0 3.2 0.00 0.00 0.00 41 1010.7
20260503181814 25 51 0.0 1.6 0.00 0.00 0.00 43 1010.8
20260503181328 25 51 0.0 1.6 0.00 0.00 0.00 44 1010.8
20260503180823 25 51 0.0 1.6 0.00 0.00 0.00 44 1010.9
20260503180355 24 69 0.0 3.2 0.00 0.00 0.00 47 1010.9
20260503175827 24 99 0.0 3.2 0.00 0.00 0.00 45 1011.0
20260503175339 23 40 0.0 3.2 0.00 0.00 0.00 46 1010.9
20260503174831 23 40 0.0 1.6 0.00 0.00 0.00 48 1011.0
20260503174323 23 40 0.0 3.2 0.00 0.00 0.00 48 1011.1
20260503173820 22 40 0.0 3.2 0.00 0.00 0.00 51 1011.0
20260503173331 22 40 0.0 3.2 0.00 0.00 0.00 51 1011.1
20260503172822 22 150 0.0 3.2 0.00 0.00 0.00 51 1011.1
20260503172316 21 84 0.0 4.8 0.00 0.00 0.00 53 1011.1
20260503171827 21 67 0.0 4.8 0.00 0.00 0.00 51 1011.2
20260503171320 20 310 0.0 3.2 0.00 0.00 0.00 56 1011.2
20260503170831 20 59 0.0 3.2 0.00 0.00 0.00 59 1011.1
20260503170322 20 59 0.0 8.0 0.00 0.00 0.00 59 1011.2
20260503150849 13 345 0.0 0.0 0.00 0.00 0.00 88 1011.8
20260503150318 13 345 0.0 0.0 0.00 0.00 0.00 88 1011.8
20260503131330 12 345 0.0 0.0 0.00 0.00 0.00 83 1011.4
20260503130824 12 345 0.0 0.0 0.00 0.00 0.00 83 1011.4
20260503130316 12 345 0.0 0.0 0.00 0.00 0.00 83 1011.3
20260503110824 13 345 0.0 0.0 0.00 0.00 0.00 83 1011.6
20260503110316 13 345 0.0 0.0 0.00 0.00 0.00 82 1011.6
20260503090329 13 345 0.0 0.0 0.00 0.00 0.00 81 1012.1
20260503081331 14 345 0.0 0.0 0.00 0.00 0.00 79 1012.1
20260503080821 14 345 0.0 0.0 0.00 0.00 0.00 79 1012.1
20260503080315 15 345 0.0 0.0 0.00 0.00 0.00 79 1012.1
20260503072830 15 345 0.0 0.0 0.00 0.00 0.00 78 1012.1
20260503072323 15 345 0.0 0.0 0.00 0.00 0.00 77 1012.2
20260503071815 15 345 0.0 0.0 0.00 0.00 0.00 77 1012.1
20260503071332 15 345 0.0 0.0 0.00 0.00 0.00 77 1012.1
20260503070829 15 345 0.0 0.0 0.00 0.00 0.00 77 1012.2
20260503070321 15 345 0.0 0.0 0.00 0.00 0.00 77 1012.2
20260503060327 16 345 0.0 0.0 0.00 0.00 0.00 74 1012.5
20260503054812 16 345 0.0 0.0 0.00 0.00 0.00 74 1012.3
20260503054328 16 345 0.0 0.0 0.00 0.00 0.00 74 1012.2
20260503053819 16 345 0.0 0.0 0.00 0.00 0.00 73 1012.3
20260503053333 16 345 0.0 0.0 0.00 0.00 0.00 73 1012.1
20260503052824 16 345 0.0 0.0 0.00 0.00 0.00 73 1012.1
20260503052321 17 345 0.0 0.0 0.00 0.00 0.00 73 1011.9
20260503051814 17 345 0.0 0.0 0.00 0.00 0.00 73 1011.9
20260503051329 17 345 0.0 0.0 0.00 0.00 0.00 72 1012.1
20260503050825 17 345 0.0 1.6 0.00 0.00 0.00 72 1012.1
20260503050321 17 345 0.0 1.6 0.00 0.00 0.00 73 1012.1
20260503045816 17 199 0.0 0.0 0.00 0.00 0.00 73 1012.1
20260503045327 17 199 0.0 1.6 0.00 0.00 0.00 72 1012.3
20260503044817 17 205 0.0 1.6 0.00 0.00 0.00 72 1012.5
20260503044313 17 201 0.0 1.6 0.00 0.00 0.00 71 1012.4
20260503043830 17 201 0.0 1.6 0.00 0.00 0.00 71 1012.1
20260503043321 17 201 0.0 0.0 0.00 0.00 0.00 71 1011.8
20260503042820 17 201 0.0 0.0 0.00 0.00 0.00 72 1011.8
20260503042316 17 201 0.0 0.0 0.00 0.00 0.00 71 1011.8
20260503041813 17 201 0.0 0.0 0.00 0.00 0.00 71 1011.8
20260503041404 17 201 0.0 0.0 0.00 0.00 0.00 71 1011.8